Location: ???? ?????
(30.0052°N, 31.2891°E)
Time: 12:12:22
(UTC+00:00)

Cosmos 1331 Rocket - Pass Details

Date: 07 October 2022
Orbit: 748 x 778 km, 74.0° (Epoch: 08 December)

Event Time Altitude Azimuth Distance (km) Brightness Sun altitude
Exits shadow 01:06:13 21° 33° (NNE) 1,655 6.1 -36.3°
Drops below altitude 10° 01:07:54 10° 26° (NNE) 2,270 6.9 -35.9°
Sets 01:10:18 0° 22° (NNE) 3,200 7.7 -35.4°
